Location: Ferchesar
(52.6477°N, 12.4298°E)
Time: 17:41:58
(UTC+01:00)

Transit 4A - Pass Details

Date: 09 December 2021
Orbit: 864 x 980 km, 66.8° (Epoch: 16 January)

Event Time Altitude Azimuth Distance (km) Brightness Sun altitude
Rises 20:08:27 0° 247° (WSW) 3,488 11.6 -36.9°
Reaches altitude 10° 20:11:03 10° 255° (WSW) 2,567 10.8 -37.3°
Enters shadow 20:15:10 35° 292° (WNW) 1,428 9.2 -37.9°
